Time,TemperatureF,DewpointF,PressureIn,WindDirection,WindDirectionDegrees,WindSpeedMPH,WindSpeedGustMPH,Humidity,HourlyPrecipIn,Conditions,Clouds,dailyrainin,SoftwareType,DateUTC
2013-05-29 00:03:00,48.2,40.0,29.59,East,90,0.0,-999.0,73,-99.99,,,0.00,Acu-Link.com,2013-05-29 07:03:00,
2013-05-29 00:18:00,48.2,40.3,29.59,ENE,67,0.0,-999.0,74,-99.99,,,0.00,Acu-Link.com,2013-05-29 07:18:00,
2013-05-29 00:48:00,48.2,40.3,29.59,East,90,0.0,-999.0,74,-99.99,,,0.00,Acu-Link.com,2013-05-29 07:48:00,
2013-05-29 01:04:00,48.2,40.7,29.59,ESE,112,0.0,-999.0,75,-99.99,,,0.00,Acu-Link.com,2013-05-29 08:04:00,
2013-05-29 01:19:00,48.2,40.7,29.59,East,90,0.0,-999.0,75,-99.99,,,0.00,Acu-Link.com,2013-05-29 08:19:00,
2013-05-29 01:34:00,46.4,38.9,29.59,ENE,67,0.0,-999.0,75,-99.99,,,0.00,Acu-Link.com,2013-05-29 08:34:00,
2013-05-29 01:49:00,46.4,38.9,29.60,ENE,67,0.0,-999.0,75,-99.99,,,0.00,Acu-Link.com,2013-05-29 08:49:00,
2013-05-29 02:04:00,46.4,39.6,29.60,ENE,67,0.0,-999.0,77,-99.99,,,0.00,Acu-Link.com,2013-05-29 09:04:00,
2013-05-29 02:19:00,46.4,39.6,29.59,SSW,202,0.0,-999.0,77,-99.99,,,0.00,Acu-Link.com,2013-05-29 09:19:00,
2013-05-29 02:34:00,46.4,39.9,29.60,NNW,337,0.0,-999.0,78,-99.99,,,0.00,Acu-Link.com,2013-05-29 09:34:00,
2013-05-29 02:49:00,46.4,39.6,29.60,ESE,112,0.0,-999.0,77,-99.99,,,0.00,Acu-Link.com,2013-05-29 09:49:00,
2013-05-29 03:04:00,44.6,37.8,29.60,ENE,67,0.0,-999.0,77,-99.99,,,0.00,Acu-Link.com,2013-05-29 10:04:00,
2013-05-29 03:20:00,44.6,38.8,29.60,ENE,67,0.0,-999.0,80,-99.99,,,0.00,Acu-Link.com,2013-05-29 10:20:00,
2013-05-29 03:35:00,44.6,39.1,29.61,ENE,67,0.0,-999.0,81,-99.99,,,0.00,Acu-Link.com,2013-05-29 10:35:00,
2013-05-29 03:50:00,44.6,39.1,29.61,ENE,67,0.0,-999.0,81,-99.99,,,0.00,Acu-Link.com,2013-05-29 10:50:00,
2013-05-29 04:05:00,44.6,39.5,29.61,NE,45,1.6,-999.0,82,-99.99,,,0.00,Acu-Link.com,2013-05-29 11:05:00,
2013-05-29 04:20:00,44.6,39.5,29.61,NNW,337,0.0,-999.0,82,-99.99,,,0.00,Acu-Link.com,2013-05-29 11:20:00,
2013-05-29 04:36:00,44.6,39.5,29.61,ENE,67,0.0,-999.0,82,-99.99,,,0.00,Acu-Link.com,2013-05-29 11:36:00,
2013-05-29 04:51:00,42.8,37.7,29.61,ENE,67,0.0,-999.0,82,-99.99,,,0.00,Acu-Link.com,2013-05-29 11:51:00,
2013-05-29 05:06:00,42.8,37.7,29.61,NE,45,0.0,-999.0,82,-99.99,,,0.00,Acu-Link.com,2013-05-29 12:06:00,
2013-05-29 05:22:00,42.8,37.7,29.61,NE,45,0.0,-999.0,82,-99.99,,,0.00,Acu-Link.com,2013-05-29 12:22:00,
2013-05-29 05:37:00,42.8,37.7,29.61,NE,45,0.0,-999.0,82,-99.99,,,0.00,Acu-Link.com,2013-05-29 12:37:00,
2013-05-29 05:52:00,42.8,37.7,29.61,NE,45,0.0,-999.0,82,-99.99,,,0.00,Acu-Link.com,2013-05-29 12:52:00,
2013-05-29 06:07:00,42.8,37.7,29.60,East,90,0.0,-999.0,82,-99.99,,,0.00,Acu-Link.com,2013-05-29 13:07:00,
2013-05-29 06:22:00,42.8,38.3,29.60,NE,45,0.0,-999.0,84,-99.99,,,0.00,Acu-Link.com,2013-05-29 13:22:00,
2013-05-29 06:38:00,44.6,39.8,29.61,ENE,67,0.0,-999.0,83,-99.99,,,0.00,Acu-Link.com,2013-05-29 13:38:00,
2013-05-29 06:53:00,44.6,39.5,29.60,SSW,202,0.0,-999.0,82,-99.99,,,0.00,Acu-Link.com,2013-05-29 13:53:00,
2013-05-29 07:08:00,44.6,39.1,29.60,SE,135,0.0,-999.0,81,-99.99,,,0.00,Acu-Link.com,2013-05-29 14:08:00,
2013-05-29 07:23:00,44.6,39.1,29.61,ESE,112,0.0,-999.0,81,-99.99,,,0.00,Acu-Link.com,2013-05-29 14:23:00,
2013-05-29 07:38:00,46.4,39.9,29.61,WSW,247,0.0,-999.0,78,-99.99,,,0.00,Acu-Link.com,2013-05-29 14:38:00,
2013-05-29 07:53:00,46.4,39.6,29.61,South,180,0.0,-999.0,77,-99.99,,,0.00,Acu-Link.com,2013-05-29 14:53:00,
2013-05-29 08:08:00,48.2,40.7,29.61,South,180,0.0,-999.0,75,-99.99,,,0.00,Acu-Link.com,2013-05-29 15:08:00,
2013-05-29 08:23:00,50.0,40.6,29.61,SW,225,2.7,-999.0,70,-99.99,,,0.00,Acu-Link.com,2013-05-29 15:23:00,
2013-05-29 08:38:00,50.0,40.2,29.60,SW,225,2.7,-999.0,69,-99.99,,,0.00,Acu-Link.com,2013-05-29 15:38:00,
2013-05-29 08:53:00,51.8,40.8,29.60,NE,45,0.0,-999.0,66,-99.99,,,0.00,Acu-Link.com,2013-05-29 15:53:00,
2013-05-29 09:09:00,51.8,40.4,29.60,SSE,157,2.0,-999.0,65,-99.99,,,0.00,Acu-Link.com,2013-05-29 16:09:00,
2013-05-29 09:24:00,53.6,40.9,29.60,South,180,0.0,-999.0,62,-99.99,,,0.00,Acu-Link.com,2013-05-29 16:24:00,
2013-05-29 09:39:00,53.6,40.1,29.60,NNE,22,2.7,-999.0,60,-99.99,,,0.00,Acu-Link.com,2013-05-29 16:39:00,
2013-05-29 09:54:00,53.6,40.9,29.60,NE,45,0.0,-999.0,62,-99.99,,,0.00,Acu-Link.com,2013-05-29 16:54:00,
2013-05-29 10:09:00,57.2,41.6,29.59,SW,225,2.7,-999.0,56,-99.99,,,0.00,Acu-Link.com,2013-05-29 17:09:00,
2013-05-29 10:24:00,55.4,40.0,29.59,WSW,247,2.0,-999.0,56,-99.99,,,0.00,Acu-Link.com,2013-05-29 17:24:00,
2013-05-29 10:40:00,60.8,44.5,29.59,South,180,2.7,-999.0,55,-99.99,,,0.00,Acu-Link.com,2013-05-29 17:40:00,
2013-05-29 10:55:00,60.8,42.6,29.59,NNE,22,1.6,-999.0,51,-99.99,,,0.00,Acu-Link.com,2013-05-29 17:55:00,
2013-05-29 11:10:00,60.8,42.6,29.59,ESE,112,2.7,-999.0,51,-99.99,,,0.00,Acu-Link.com,2013-05-29 18:10:00,
2013-05-29 11:25:00,59.0,42.4,29.58,NNE,22,1.6,-999.0,54,-99.99,,,0.00,Acu-Link.com,2013-05-29 18:25:00,
2013-05-29 11:40:00,59.0,41.9,29.58,SSE,157,1.6,-999.0,53,-99.99,,,0.00,Acu-Link.com,2013-05-29 18:40:00,
2013-05-29 11:56:00,57.2,41.2,29.58,NE,45,0.0,-999.0,55,-99.99,,,0.00,Acu-Link.com,2013-05-29 18:56:00,
2013-05-29 12:11:00,60.8,41.5,29.58,ENE,67,1.6,-999.0,49,-99.99,,,0.00,Acu-Link.com,2013-05-29 19:11:00,
2013-05-29 12:26:00,60.8,40.4,29.58,SSE,157,0.0,-999.0,47,-99.99,,,0.00,Acu-Link.com,2013-05-29 19:26:00,
2013-05-29 12:41:00,60.8,41.0,29.57,WSW,247,2.0,-999.0,48,-99.99,,,0.00,Acu-Link.com,2013-05-29 19:41:00,
2013-05-29 12:56:00,62.6,39.2,29.57,East,90,3.1,-999.0,42,-99.99,,,0.00,Acu-Link.com,2013-05-29 19:56:00,
2013-05-29 13:12:00,60.8,41.0,29.57,East,90,0.0,-999.0,48,-99.99,,,0.00,Acu-Link.com,2013-05-29 20:12:00,
2013-05-29 13:27:00,60.8,40.4,29.57,SE,135,2.0,-999.0,47,-99.99,,,0.00,Acu-Link.com,2013-05-29 20:27:00,
2013-05-29 13:42:00,62.6,42.1,29.56,South,180,3.1,-999.0,47,-99.99,,,0.00,Acu-Link.com,2013-05-29 20:42:00,
2013-05-29 13:57:00,62.6,40.4,29.56,SW,225,2.7,-999.0,44,-99.99,,,0.00,Acu-Link.com,2013-05-29 20:57:00,
2013-05-29 14:13:00,60.8,43.6,29.56,ESE,112,2.7,-999.0,53,-99.99,,,0.00,Acu-Link.com,2013-05-29 21:13:00,
2013-05-29 14:28:00,64.4,43.2,29.56,SW,225,2.0,-999.0,46,-99.99,,,0.00,Acu-Link.com,2013-05-29 21:28:00,
2013-05-29 14:43:00,66.2,43.6,29.56,SSE,157,1.1,-999.0,44,-99.99,,,0.00,Acu-Link.com,2013-05-29 21:43:00,
2013-05-29 14:58:00,64.4,40.8,29.56,SSW,202,0.0,-999.0,42,-99.99,,,0.00,Acu-Link.com,2013-05-29 21:58:00,
2013-05-29 15:13:00,64.4,40.8,29.56,SSW,202,2.7,-999.0,42,-99.99,,,0.00,Acu-Link.com,2013-05-29 22:13:00,
2013-05-29 15:28:00,62.6,39.8,29.56,NE,45,3.1,-999.0,43,-99.99,,,0.00,Acu-Link.com,2013-05-29 22:28:00,
2013-05-29 15:44:00,60.8,38.8,29.55,ESE,112,1.6,-999.0,44,-99.99,,,0.00,Acu-Link.com,2013-05-29 22:44:00,
2013-05-29 15:59:00,60.8,40.4,29.56,SSE,157,0.0,-999.0,47,-99.99,,,0.00,Acu-Link.com,2013-05-29 22:59:00,
2013-05-29 16:14:00,60.8,39.9,29.55,ESE,112,3.1,-999.0,46,-99.99,,,0.00,Acu-Link.com,2013-05-29 23:14:00,
2013-05-29 16:29:00,60.8,42.0,29.56,ESE,112,4.0,-999.0,50,-99.99,,,0.00,Acu-Link.com,2013-05-29 23:29:00,
2013-05-29 16:44:00,59.0,43.3,29.56,ENE,67,1.6,-999.0,56,-99.99,,,0.00,Acu-Link.com,2013-05-29 23:44:00,
2013-05-29 17:00:00,59.0,41.9,29.56,ESE,112,2.0,-999.0,53,-99.99,,,0.00,Acu-Link.com,2013-05-30 00:00:00,
2013-05-29 17:15:00,59.0,41.4,29.56,SSE,157,0.0,-999.0,52,-99.99,,,0.00,Acu-Link.com,2013-05-30 00:15:00,
2013-05-29 17:30:00,60.8,42.6,29.55,ESE,112,0.0,-999.0,51,-99.99,,,0.00,Acu-Link.com,2013-05-30 00:30:00,
2013-05-29 17:45:00,60.8,41.5,29.55,SSE,157,0.0,-999.0,49,-99.99,,,0.00,Acu-Link.com,2013-05-30 00:45:00,
2013-05-29 18:00:00,60.8,43.6,29.55,SSE,157,1.1,-999.0,53,-99.99,,,0.00,Acu-Link.com,2013-05-30 01:00:00,
2013-05-29 18:15:00,60.8,42.6,29.55,SE,135,0.0,-999.0,51,-99.99,,,0.00,Acu-Link.com,2013-05-30 01:15:00,
2013-05-29 18:30:00,62.6,42.6,29.55,ESE,112,0.0,-999.0,48,-99.99,,,0.00,Acu-Link.com,2013-05-30 01:30:00,
2013-05-29 18:46:00,60.8,42.6,29.55,ESE,112,0.0,-999.0,51,-99.99,,,0.00,Acu-Link.com,2013-05-30 01:46:00,
2013-05-29 19:01:00,60.8,44.0,29.55,ESE,112,1.6,-999.0,54,-99.99,,,0.00,Acu-Link.com,2013-05-30 02:01:00,
2013-05-29 19:16:00,60.8,44.5,29.56,ESE,112,1.6,-999.0,55,-99.99,,,0.00,Acu-Link.com,2013-05-30 02:16:00,
2013-05-29 19:31:00,59.0,43.3,29.56,ESE,112,0.0,-999.0,56,-99.99,,,0.00,Acu-Link.com,2013-05-30 02:31:00,
2013-05-29 19:47:00,59.0,44.7,29.56,SE,135,3.6,-999.0,59,-99.99,,,0.00,Acu-Link.com,2013-05-30 02:47:00,
2013-05-29 20:02:00,59.0,45.1,29.56,ESE,112,2.0,-999.0,60,-99.99,,,0.00,Acu-Link.com,2013-05-30 03:02:00,
2013-05-29 20:17:00,55.4,42.2,29.58,WNW,292,2.0,-999.0,61,-99.99,,,0.00,Acu-Link.com,2013-05-30 03:17:00,
2013-05-29 20:33:00,55.4,42.6,29.59,SSE,157,3.1,-999.0,62,-99.99,,,0.00,Acu-Link.com,2013-05-30 03:33:00,
2013-05-29 20:48:00,53.6,40.9,29.59,ESE,112,0.0,-999.0,62,-99.99,,,0.00,Acu-Link.com,2013-05-30 03:48:00,
2013-05-29 21:03:00,53.6,42.1,29.59,SE,135,0.0,-999.0,65,-99.99,,,0.00,Acu-Link.com,2013-05-30 04:03:00,
2013-05-29 21:34:00,51.8,42.0,29.60,SE,135,0.0,-999.0,69,-99.99,,,0.00,Acu-Link.com,2013-05-30 04:34:00,
2013-05-29 21:49:00,51.8,42.0,29.61,ESE,112,0.0,-999.0,69,-99.99,,,0.00,Acu-Link.com,2013-05-30 04:49:00,
2013-05-29 22:04:00,51.8,42.7,29.61,ESE,112,0.0,-999.0,71,-99.99,,,0.00,Acu-Link.com,2013-05-30 05:04:00,
2013-05-29 22:19:00,51.8,42.7,29.62,ESE,112,0.0,-999.0,71,-99.99,,,0.00,Acu-Link.com,2013-05-30 05:19:00,
2013-05-29 22:34:00,51.8,43.4,29.62,East,90,0.0,-999.0,73,-99.99,,,0.00,Acu-Link.com,2013-05-30 05:34:00,
2013-05-29 22:49:00,51.8,43.8,29.62,NE,45,0.0,-999.0,74,-99.99,,,0.00,Acu-Link.com,2013-05-30 05:49:00,
2013-05-29 23:04:00,50.0,42.7,29.63,NE,45,0.0,-999.0,76,-99.99,,,0.00,Acu-Link.com,2013-05-30 06:04:00,
2013-05-29 23:20:00,50.0,43.7,29.63,NE,45,0.0,-999.0,79,-99.99,,,0.00,Acu-Link.com,2013-05-30 06:20:00,
2013-05-29 23:35:00,50.0,44.4,29.63,NE,45,0.0,-999.0,81,-99.99,,,0.00,Acu-Link.com,2013-05-30 06:35:00,
2013-05-29 23:50:00,50.0,44.7,29.63,NE,45,0.0,-999.0,82,-99.99,,,0.00,Acu-Link.com,2013-05-30 06:50:00,